DL0GY-13 Weather Reports


Display with metric or nautical units.
time (UTC)temp
F
wind
direction
speed
MPH
gust
MPH
rain 1hr
in
rain 24hr
in
rain mn
in
humidity
%
barometer
mb
20260507141029 59 45 0.0 0.0 0.00 0.00 0.00 58 1014.7
20260507140029 59 45 0.0 0.0 0.00 0.00 0.00 58 1014.8
20260507135029 59 90 0.0 0.0 0.00 0.00 0.00 57 1014.8
20260507134029 60 67 0.0 0.0 0.00 0.00 0.00 56 1014.8
20260507133029 61 45 0.0 0.0 0.00 0.00 0.00 56 1014.9
20260507132029 61 45 0.0 0.0 0.00 0.00 0.00 55 1014.8
20260507131029 61 45 0.0 0.0 0.00 0.00 0.00 54 1014.8
20260507130029 62 0 0.0 0.0 0.00 0.00 0.00 53 1014.9
20260507125029 62 45 0.0 0.0 0.00 0.00 0.00 52 1014.8
20260507124029 63 45 0.0 0.0 0.00 0.00 0.00 51 1014.8
20260507123029 66 22 0.0 0.0 0.00 0.00 0.00 49 1014.8
20260507122029 66 90 0.0 0.0 0.00 0.00 0.00 46 1014.7
20260507121029 72 22 0.0 0.0 0.00 0.00 0.00 42 1014.8
20260507120029 75 22 0.0 0.0 0.00 0.00 0.00 41 1014.8
20260507115029 73 67 0.0 0.0 0.00 0.00 0.00 45 1014.8
20260507114029 74 45 0.0 0.0 0.00 0.00 0.00 43 1014.8
20260507113029 73 67 0.0 0.0 0.00 0.00 0.00 44 1014.7
20260507112029 72 22 0.0 0.0 0.00 0.00 0.00 44 1014.8
20260507111029 75 90 0.0 0.0 0.00 0.00 0.00 41 1014.7
20260507110029 77 45 0.0 0.0 0.00 0.00 0.00 40 1014.7
20260507105029 79 45 0.0 0.0 0.00 0.00 0.00 41 1014.8
20260507104030 75 0 0.0 0.0 0.00 0.00 0.00 45 1014.9
20260507103029 71 90 0.0 0.0 0.00 0.00 0.00 46 1014.7
20260507102029 73 67 0.0 0.0 0.00 0.00 0.00 43 1014.7
20260507101029 75 67 0.0 0.0 0.00 0.00 0.00 44 1014.6
20260507100029 74 45 0.0 0.0 0.00 0.00 0.00 47 1014.6
20260507095029 71 45 0.0 0.0 0.00 0.00 0.00 51 1014.4
20260507092030 63 67 0.0 0.0 0.00 0.00 0.00 56 1014.4
20260507091030 63 67 0.0 0.0 0.00 0.00 0.00 58 1014.3
20260507090029 65 22 0.0 0.0 0.00 0.00 0.00 55 1014.3
20260507084029 70 67 0.0 0.0 0.00 0.00 0.00 51 1014.0
20260507083044 77 45 0.0 0.0 0.00 0.00 0.00 45 1014.0